CW6538 Cattolica IT current weather conditions

sailwx.info

Wind from 178 at 1 knots gusting 2

Air temperature 21.7° C
Dewpoint 17.9° C

Last reported at 2015-Aug-05 01:49 UTC.
Time now 2015-Aug-05 02:24 UTC

Location: N 43°58' E 012°44'.
View on Google Maps.

See reports from other nearby stations

  
Tides and Currents Weather Stations Pressure Air Temp Water Temp Dewpoint Dewpoint Depression Visibility Wind Speed Wind Dir Waves Ship Positions
date/time (UTC)wind fromknots sea level pressurealtimeterstation pressurevisibilityair tempwater tempwave heightnotes
2015-Aug-05 01:49 178 1 gusting 2 21.7
2015-Aug-05 01:44 179 21.7
2015-Aug-05 01:38 179 1 gusting 4 21.7
2015-Aug-05 01:34 175 2 gusting 4 22.2
2015-Aug-05 01:29 173 3 gusting 4 22.2
2015-Aug-05 01:23 164 3 gusting 5 22.2
2015-Aug-05 01:18 163 2 gusting 5 22.2
2015-Aug-05 01:13 167 3 gusting 5 22.2
2015-Aug-05 01:09 172 3 gusting 5 22.2
2015-Aug-05 01:04 175 3 gusting 4 22.2
2015-Aug-05 00:59 184 1 gusting 2 22.2
2015-Aug-05 00:53 184 1 gusting 4 22.2
2015-Aug-05 00:48 184 2 gusting 4 22.2
2015-Aug-05 00:44 184 3 gusting 4 22.2
2015-Aug-05 00:38 184 3 gusting 4 22.2
2015-Aug-05 00:33 185 2 gusting 4 22.2
2015-Aug-05 00:28 184 2 gusting 4 22.2
2015-Aug-05 00:23 184 2 gusting 4 22.2
2015-Aug-05 00:19 184 3 gusting 4 22.2
2015-Aug-05 00:08 185 2 gusting 3 22.8
2015-Aug-05 00:03 184 2 gusting 3 22.8
2015-Aug-04 23:54 185 2 gusting 4 22.8
2015-Aug-04 23:49 184 22.8
2015-Aug-04 23:44 185 1 gusting 2 22.8
2015-Aug-04 23:39 185 1 gusting 4 22.8
2015-Aug-04 23:34 184 2 gusting 4 22.8
2015-Aug-04 23:29 185 3 gusting 4 22.8
2015-Aug-04 23:19 154 2 gusting 4 22.8
2015-Aug-04 23:14 151 0 gusting 5 22.8
2015-Aug-04 23:09 158 3 gusting 5 22.8
2015-Aug-04 23:04 140 4 gusting 5 22.8
2015-Aug-04 22:58 140 2 gusting 5 22.8
2015-Aug-04 22:54 149 1 gusting 4 22.8
2015-Aug-04 22:49 156 1 gusting 4 22.8
2015-Aug-04 22:39 165 2 gusting 5 22.8
2015-Aug-04 22:34 169 2 gusting 5 22.8
2015-Aug-04 22:28 155 3 gusting 5 22.8
2015-Aug-04 22:19 162 4 gusting 5 22.8
2015-Aug-04 22:14 173 3 gusting 4 22.8
2015-Aug-04 22:04 173 2 gusting 5 23.3
2015-Aug-04 21:59 174 3 gusting 5 23.3
2015-Aug-04 21:53 190 3 gusting 4 23.3
2015-Aug-04 21:48 187 3 gusting 4 23.3
2015-Aug-04 21:44 170 2 gusting 4 23.3
2015-Aug-04 21:33 169 1 gusting 5 23.3
2015-Aug-04 21:24 171 3 gusting 5 23.9
2015-Aug-04 21:18 171 3 gusting 5 23.9
2015-Aug-04 21:09 159 3 gusting 5 23.9
2015-Aug-04 21:04 164 4 gusting 5 24.4
2015-Aug-04 20:54 161 2 gusting 4 24.4
2015-Aug-04 20:49 161 1 gusting 3 24.4
2015-Aug-04 20:44 161 1 gusting 2 24.4
2015-Aug-04 20:39 161 24.4
2015-Aug-04 20:34 161 24.4
2015-Aug-04 20:23 159 24.4
2015-Aug-04 20:19 159 25.0
2015-Aug-04 20:14 158 25.0
2015-Aug-04 20:08 159 25.0
2015-Aug-04 20:03 143 25.0
2015-Aug-04 19:54 153 0 gusting 2 25.6
2015-Aug-04 19:44 154 0 gusting 3 25.6
2015-Aug-04 19:39 153 26.1
2015-Aug-04 19:29 153 26.1
2015-Aug-04 19:24 153 26.1
2015-Aug-04 19:13 135 2 gusting 4 26.7
2015-Aug-04 19:09 131 26.7
2015-Aug-04 18:59 131 26.7
2015-Aug-04 18:53 131 26.7
2015-Aug-04 18:44 131 27.2
2015-Aug-04 18:38 131 27.2
2015-Aug-04 18:34 131 27.2
2015-Aug-04 18:23 131 0 gusting 3 27.2
2015-Aug-04 18:14 136 0 gusting 4 27.8
2015-Aug-04 18:08 133 1 gusting 4 27.8
2015-Aug-04 18:03 133 2 gusting 4 27.8
2015-Aug-04 17:59 139 1 gusting 4 27.8
2015-Aug-04 17:53 080 0 gusting 2 27.8
2015-Aug-04 17:48 079 27.8
2015-Aug-04 17:44 076 27.8
2015-Aug-04 17:39 076 27.8
2015-Aug-04 17:34 067 2 gusting 5 27.8
2015-Aug-04 17:29 051 2 gusting 5 27.8
2015-Aug-04 17:24 095 2 gusting 5 27.8
2015-Aug-04 17:19 069 3 gusting 5 27.8
2015-Aug-04 17:14 077 2 gusting 5 27.8
2015-Aug-04 17:09 103 1 gusting 5 27.8
2015-Aug-04 17:04 097 2 gusting 5 27.8
2015-Aug-04 16:59 109 3 gusting 6 28.3
2015-Aug-04 16:54 074 3 gusting 6 28.3
2015-Aug-04 16:49 049 3 gusting 6 28.9
2015-Aug-04 16:44 058 3 gusting 6 28.9
2015-Aug-04 16:39 040 4 gusting 6 28.9
2015-Aug-04 16:34 049 3 gusting 6 28.9
2015-Aug-04 16:28 080 2 gusting 7 28.9
2015-Aug-04 16:24 035 4 gusting 7 29.4
2015-Aug-04 16:19 059 4 gusting 6 29.4
2015-Aug-04 16:14 059 5 gusting 6 29.4
2015-Aug-04 16:09 005 5 gusting 7 29.4
2015-Aug-04 16:04 013 5 gusting 7 29.4
2015-Aug-04 15:58 068 5 gusting 7 29.4
2015-Aug-04 15:54 042 5 gusting 8 29.4
2015-Aug-04 15:48 046 6 gusting 8 29.4
2015-Aug-04 15:44 043 4 gusting 9 29.4
2015-Aug-04 15:39 061 6 gusting 9 29.4
2015-Aug-04 15:33 026 4 gusting 9 30.0
2015-Aug-04 15:29 065 5 gusting 9 30.0
2015-Aug-04 15:23 038 5 gusting 9 30.0
2015-Aug-04 15:19 040 4 gusting 9 30.0
2015-Aug-04 15:14 348 6 gusting 9 30.0
2015-Aug-04 15:09 063 6 gusting 10 30.0
2015-Aug-04 15:04 025 6 gusting 10 30.0
2015-Aug-04 14:59 015 5 gusting 9 30.0
2015-Aug-04 14:54 041 4 gusting 9 30.0
2015-Aug-04 14:49 024 6 gusting 10 30.0
2015-Aug-04 14:43 005 6 gusting 10 30.0
2015-Aug-04 14:39 360 6 gusting 10 30.6
2015-Aug-04 14:34 056 6 gusting 10 30.0
2015-Aug-04 14:29 020 6 gusting 9 30.6
2015-Aug-04 14:24 355 6 gusting 10 30.6
2015-Aug-04 14:19 028 6 gusting 10 30.6
2015-Aug-04 14:13 027 5 gusting 8 30.6
2015-Aug-04 14:08 343 5 gusting 10 30.6
2015-Aug-04 14:04 026 6 gusting 10 30.6
2015-Aug-04 13:59 051 6 gusting 9 30.0
2015-Aug-04 13:54 355 4 gusting 11 30.6
2015-Aug-04 13:49 051 6 gusting 11 30.6
2015-Aug-04 13:44 022 6 gusting 11 30.6
2015-Aug-04 13:39 040 6 gusting 10 30.6
2015-Aug-04 13:34 042 7 gusting 10 30.6
2015-Aug-04 13:29 339 6 gusting 10 30.0
2015-Aug-04 13:23 022 6 gusting 10 30.0
2015-Aug-04 13:19 019 6 gusting 10 30.0
2015-Aug-04 13:13 005 6 gusting 10 30.0
2015-Aug-04 13:09 040 7 gusting 12 30.0
2015-Aug-04 13:04 005 7 gusting 12 30.0
2015-Aug-04 12:59 030 8 gusting 11 30.0
2015-Aug-04 12:54 024 7 gusting 11 30.0
2015-Aug-04 12:49 005 7 gusting 12 30.0
2015-Aug-04 12:44 028 8 gusting 12 30.0
2015-Aug-04 12:39 030 7 gusting 12 30.0
2015-Aug-04 12:29 005 6 gusting 11 30.0
2015-Aug-04 12:24 348 8 gusting 12 30.0
2015-Aug-04 12:19 023 7 gusting 12 30.0
2015-Aug-04 12:14 013 7 gusting 10 30.0
2015-Aug-04 12:09 005 4 gusting 10 30.0
2015-Aug-04 12:03 350 6 gusting 10 30.0
2015-Aug-04 11:59 025 7 gusting 11 30.0
2015-Aug-04 11:54 346 7 gusting 11 30.0
2015-Aug-04 11:49 355 7 gusting 11 30.0
2015-Aug-04 11:44 351 7 gusting 12 30.0
2015-Aug-04 11:38 360 8 gusting 12 30.0
2015-Aug-04 11:34 360 6 gusting 12 30.0
2015-Aug-04 11:29 027 8 gusting 12 30.0
2015-Aug-04 11:24 360 7 gusting 11 30.0
2015-Aug-04 11:19 327 6 gusting 12 30.0
2015-Aug-04 11:14 034 8 gusting 12 30.0
2015-Aug-04 11:09 341 6 gusting 11 30.0
2015-Aug-04 11:04 325 6 gusting 11 30.0
2015-Aug-04 10:58 360 7 gusting 12 30.0
2015-Aug-04 10:53 028 8 gusting 13 30.0
2015-Aug-04 10:48 011 9 gusting 13 30.0
2015-Aug-04 10:44 044 8 gusting 12 30.0
2015-Aug-04 10:39 036 5 gusting 11 30.0
2015-Aug-04 10:34 025 6 gusting 11 30.0
2015-Aug-04 10:28 349 7 gusting 11 30.0
2015-Aug-04 10:24 340 6 gusting 13 30.0
2015-Aug-04 10:19 341 6 gusting 13 30.0
2015-Aug-04 10:13 014 6 gusting 12 29.4
2015-Aug-04 10:09 336 7 gusting 12 29.4
2015-Aug-04 10:03 349 8 gusting 12 28.9
2015-Aug-04 09:59 355 7 gusting 12 28.9
2015-Aug-04 09:53 319 7 gusting 12 28.9
2015-Aug-04 09:48 329 8 gusting 12 29.4
2015-Aug-04 09:44 350 6 gusting 12 29.4
2015-Aug-04 09:39 312 5 gusting 11 29.4
2015-Aug-04 09:34 332 6 gusting 12 28.9
2015-Aug-04 09:29 335 8 gusting 13 28.9
2015-Aug-04 09:24 355 7 gusting 13 28.9
2015-Aug-04 09:19 028 7 gusting 13 28.9
2015-Aug-04 09:14 345 7 gusting 12 28.9
2015-Aug-04 09:09 315 7 gusting 12 28.9
2015-Aug-04 09:04 325 7 gusting 12 28.9
2015-Aug-04 08:59 338 6 gusting 11 28.9
2015-Aug-04 08:54 355 6 gusting 11 28.9
2015-Aug-04 08:48 005 4 gusting 12 28.3
2015-Aug-04 08:44 320 6 gusting 12 28.3
2015-Aug-04 08:38 005 6 gusting 11 28.3
2015-Aug-04 08:34 005 6 gusting 10 28.3
2015-Aug-04 08:29 324 4 gusting 10 28.3
2015-Aug-04 08:24 321 6 gusting 11 27.8
2015-Aug-04 08:18 332 6 gusting 11 28.3
2015-Aug-04 08:14 345 7 gusting 11 28.3
2015-Aug-04 08:08 334 6 gusting 10 28.3
2015-Aug-04 08:03 309 5 gusting 9 27.8
2015-Aug-04 07:59 327 5 gusting 8 28.3
2015-Aug-04 07:54 350 5 gusting 9 27.8
2015-Aug-04 07:49 313 6 gusting 10 27.8
2015-Aug-04 07:43 296 6 gusting 10 27.8
2015-Aug-04 07:39 335 5 gusting 9 27.8
2015-Aug-04 07:34 302 6 gusting 9 27.8
2015-Aug-04 07:29 315 4 gusting 10 27.2
2015-Aug-04 07:24 346 5 gusting 11 26.7
2015-Aug-04 07:19 323 7 gusting 11 26.7
2015-Aug-04 07:13 316 6 gusting 9 26.7
2015-Aug-04 07:08 346 3 gusting 8 26.1
2015-Aug-04 07:04 301 4 gusting 8 26.1
2015-Aug-04 06:59 005 4 gusting 8 26.1
2015-Aug-04 06:54 282 4 gusting 9 26.1
2015-Aug-04 06:49 297 5 gusting 9 25.6
2015-Aug-04 06:44 287 4 gusting 9 25.6
2015-Aug-04 06:39 293 3 gusting 8 25.0
2015-Aug-04 06:33 267 2 gusting 7 24.4
2015-Aug-04 06:29 273 3 gusting 6 24.4
2015-Aug-04 06:23 311 2 gusting 6 23.9
2015-Aug-04 06:18 311 3 gusting 6 23.3
2015-Aug-04 06:14 240 22.8
2015-Aug-04 06:09 186 22.8
2015-Aug-04 06:03 186 22.2
2015-Aug-04 05:59 186 21.7
2015-Aug-04 05:53 186 21.7
2015-Aug-04 05:49 186 21.1
2015-Aug-04 05:44 186 21.1
2015-Aug-04 05:39 186 20.6
2015-Aug-04 05:33 186 20.6
2015-Aug-04 05:29 186 20.6
2015-Aug-04 05:24 186 20.0
2015-Aug-04 05:18 186 20.0
2015-Aug-04 05:14 186 20.0
2015-Aug-04 05:09 186 20.0
2015-Aug-04 05:03 186 0 gusting 3 20.0
2015-Aug-04 04:59 188 19.4
2015-Aug-04 04:53 182 0 gusting 5 19.4
2015-Aug-04 04:49 180 4 gusting 5 19.4
2015-Aug-04 04:43 181 19.4
2015-Aug-04 04:39 186 19.4
2015-Aug-04 04:34 186 0 gusting 4 19.4
2015-Aug-04 04:28 186 0 gusting 4 19.4
2015-Aug-04 04:23 184 2 gusting 4 19.4
2015-Aug-04 04:19 184 2 gusting 3 19.4
2015-Aug-04 04:13 184 2 gusting 4 19.4
2015-Aug-04 04:09 184 2 gusting 5 19.4
2015-Aug-04 04:03 184 2 gusting 5 19.4
2015-Aug-04 03:59 179 1 gusting 5 19.4
2015-Aug-04 03:54 173 3 gusting 5 19.4
2015-Aug-04 03:48 182 3 gusting 5 19.4
2015-Aug-04 03:44 182 3 gusting 5 19.4
2015-Aug-04 03:39 171 4 gusting 5 19.4
2015-Aug-04 03:33 175 4 gusting 5 19.4
2015-Aug-04 03:29 190 3 gusting 5 19.4
2015-Aug-04 03:23 173 3 gusting 5 19.4
2015-Aug-04 03:18 186 3 gusting 5 19.4
2015-Aug-04 03:14 170 3 gusting 5 19.4
2015-Aug-04 03:08 181 3 gusting 5 19.4
2015-Aug-04 03:04 180 3 gusting 5 19.4
2015-Aug-04 02:58 183 2 gusting 4 19.4
2015-Aug-04 02:54 183 2 gusting 4 19.4
2015-Aug-04 02:48 183 2 gusting 4 19.4
2015-Aug-04 02:44 184 2 gusting 4 19.4
2015-Aug-04 02:34 188 2 gusting 4 19.4
2015-Aug-04 02:28 187 2 gusting 5 19.4
2015-Aug-04 02:24 179 4 gusting 5 19.4
2015-Aug-04 02:19 194 3 gusting 5 19.4
2015-Aug-04 02:14 192 3 gusting 6 19.4
2015-Aug-04 02:09 175 4 gusting 6 19.4
2015-Aug-04 02:04 171 3 gusting 5 19.4
2015-Aug-04 01:59 187 4 gusting 5 20.0
2015-Aug-04 01:54 179 2 gusting 4 20.0
2015-Aug-04 01:49 179 1 gusting 4 20.0
2015-Aug-04 01:44 179 3 gusting 4 20.0
2015-Aug-04 01:39 179 1 gusting 4 20.0
2015-Aug-04 01:28 179 3 gusting 5 20.0
2015-Aug-04 01:24 179 2 gusting 4 20.0
2015-Aug-04 01:19 179 1 gusting 5 20.0
2015-Aug-04 01:09 180 1 gusting 4 20.0
2015-Aug-04 01:04 180 2 gusting 4 20.0
2015-Aug-04 00:59 184 20.0
2015-Aug-04 00:53 184 3 gusting 4 20.6
2015-Aug-04 00:49 186 1 gusting 4 20.6
2015-Aug-04 00:43 185 2 gusting 4 20.6
2015-Aug-04 00:39 185 2 gusting 5 20.6
2015-Aug-04 00:34 187 3 gusting 5 20.6
2015-Aug-04 00:29 180 2 gusting 4 20.6
2015-Aug-04 00:24 180 1 gusting 3 20.6
2015-Aug-04 00:19 180 1 gusting 3 20.6
2015-Aug-04 00:13 180 1 gusting 2 20.6
2015-Aug-04 00:09 180 1 gusting 4 20.6
2015-Aug-04 00:04 180 2 gusting 3 20.6
2015-Aug-03 23:59 180 2 gusting 4 20.6
2015-Aug-03 23:54 180 2 gusting 4 20.6
2015-Aug-03 23:49 180 2 gusting 5 20.6
2015-Aug-03 23:43 180 2 gusting 4 20.6
2015-Aug-03 23:39 180 2 gusting 5 21.1
2015-Aug-03 23:33 180 3 gusting 5 21.1
2015-Aug-03 23:29 186 0 gusting 4 21.1
2015-Aug-03 23:24 186 3 gusting 4 21.1
2015-Aug-03 23:19 186 2 gusting 5 21.1
2015-Aug-03 23:13 187 3 gusting 5 21.1
2015-Aug-03 23:09 188 2 gusting 4 21.1
2015-Aug-03 23:04 188 2 gusting 4 21.1
2015-Aug-03 22:58 187 3 gusting 4 21.1
2015-Aug-03 22:54 188 1 gusting 4 21.1
2015-Aug-03 22:49 188 2 gusting 4 21.7
2015-Aug-03 22:44 188 3 gusting 4 21.7
2015-Aug-03 22:38 187 1 gusting 4 21.7
2015-Aug-03 22:33 188 2 gusting 4 21.7
2015-Aug-03 22:29 187 1 gusting 4 21.7
2015-Aug-03 22:24 192 3 gusting 4 21.7
2015-Aug-03 22:18 191 3 gusting 4 21.7
2015-Aug-03 22:14 178 2 gusting 4 22.2
2015-Aug-03 22:09 177 1 gusting 3 22.2
2015-Aug-03 22:04 177 0 gusting 3 22.2
2015-Aug-03 21:59 177 2 gusting 4 22.2
2015-Aug-03 21:54 177 1 gusting 4 22.2
2015-Aug-03 21:49 177 1 gusting 2 22.2
2015-Aug-03 21:43 177 1 gusting 4 22.2
2015-Aug-03 21:39 177 2 gusting 4 22.2
2015-Aug-03 21:33 180 22.8
2015-Aug-03 21:29 180 22.8
2015-Aug-03 21:24 180 2 gusting 4 22.8
2015-Aug-03 21:18 180 2 gusting 4 22.8
2015-Aug-03 21:14 180 2 gusting 4 22.8
2015-Aug-03 21:09 180 1 gusting 3 22.8
2015-Aug-03 21:04 181 2 gusting 3 22.8
2015-Aug-03 20:59 181 2 gusting 3 22.8
2015-Aug-03 20:54 181 2 gusting 4 22.8
2015-Aug-03 20:48 181 3 gusting 4 23.3
2015-Aug-03 20:43 181 1 gusting 3 23.3
2015-Aug-03 20:38 180 23.3
2015-Aug-03 20:33 181 2 gusting 4 23.3
2015-Aug-03 20:29 182 1 gusting 4 23.9
2015-Aug-03 20:23 180 2 gusting 4 23.9
2015-Aug-03 20:19 178 1 gusting 4 23.9
2015-Aug-03 20:13 182 2 gusting 3 23.9
2015-Aug-03 20:08 155 24.4
2015-Aug-03 20:04 155 24.4
2015-Aug-03 19:58 155 24.4
2015-Aug-03 19:53 155 0 gusting 3 25.0
2015-Aug-03 19:48 153 1 gusting 2 25.0
2015-Aug-03 19:43 153 25.0
2015-Aug-03 19:39 153 0 gusting 3 25.6
2015-Aug-03 19:33 041 25.6
2015-Aug-03 19:29 041 25.6
2015-Aug-03 19:23 041 26.1
2015-Aug-03 19:19 041 26.1
2015-Aug-03 19:14 041 26.1
2015-Aug-03 19:09 041 26.1
2015-Aug-03 19:03 041 26.1
2015-Aug-03 18:59 041 26.7
2015-Aug-03 18:53 041 26.7
2015-Aug-03 18:49 041 26.7
2015-Aug-03 18:44 041 26.7
2015-Aug-03 18:38 041 26.7
2015-Aug-03 18:34 041 27.2
2015-Aug-03 18:29 041 27.2
2015-Aug-03 18:23 041 1 gusting 3 27.2
2015-Aug-03 18:19 041 27.2
2015-Aug-03 18:13 041 1 gusting 3 27.2
2015-Aug-03 18:09 041 27.2
2015-Aug-03 18:04 041 0 gusting 3 27.2
2015-Aug-03 17:59 041 27.2
2015-Aug-03 17:54 041 27.2
2015-Aug-03 17:44 079 2 gusting 4 27.2
2015-Aug-03 17:38 040 0 gusting 4 27.2
2015-Aug-03 17:34 041 1 gusting 4 27.2
2015-Aug-03 17:29 041 27.2
2015-Aug-03 17:24 041 1 gusting 5 27.2
2015-Aug-03 17:19 040 3 gusting 5 27.8
2015-Aug-03 17:13 022 2 gusting 6 27.2
2015-Aug-03 17:09 021 3 gusting 6 27.8
2015-Aug-03 17:04 016 3 gusting 6 27.8
2015-Aug-03 16:59 024 3 gusting 6 27.8
2015-Aug-03 16:54 027 2 gusting 5 27.8
2015-Aug-03 16:49 044 2 gusting 6 27.8
2015-Aug-03 16:43 029 3 gusting 6 28.3
2015-Aug-03 16:39 034 3 gusting 6 28.3
2015-Aug-03 16:34 026 3 gusting 7 28.3
2015-Aug-03 16:29 040 3 gusting 7 28.3
2015-Aug-03 16:24 045 3 gusting 6 28.3
2015-Aug-03 16:18 009 5 gusting 6 28.3
2015-Aug-03 16:14 037 4 gusting 7 28.3
2015-Aug-03 16:09 028 6 gusting 7 28.3
2015-Aug-03 16:04 030 4 gusting 8 28.3
2015-Aug-03 15:59 028 5 gusting 8 28.3
2015-Aug-03 15:54 048 4 gusting 7 28.9
2015-Aug-03 15:49 059 5 gusting 8 28.9
2015-Aug-03 15:44 043 6 gusting 8 28.3
2015-Aug-03 15:39 360 6 gusting 9 28.9
2015-Aug-03 15:34 032 6 gusting 9 28.9
2015-Aug-03 15:28 071 3 gusting 9 28.9
2015-Aug-03 15:24 063 4 gusting 9 28.9
2015-Aug-03 15:19 032 6 gusting 9 29.4
2015-Aug-03 15:13 051 5 gusting 9 29.4
2015-Aug-03 15:09 051 3 gusting 8 29.4
2015-Aug-03 15:04 026 6 gusting 8 29.4
2015-Aug-03 14:59 049 5 gusting 9 29.4
2015-Aug-03 14:54 051 4 gusting 9 29.4
2015-Aug-03 14:49 355 6 gusting 9 29.4
2015-Aug-03 14:44 022 6 gusting 9 29.4
2015-Aug-03 14:39 034 5 gusting 9 29.4
2015-Aug-03 14:34 055 5 gusting 9 29.4
2015-Aug-03 14:29 347 6 gusting 9 29.4
2015-Aug-03 14:24 360 6 gusting 8 29.4
2015-Aug-03 14:19 005 6 gusting 8 29.4
2015-Aug-03 14:13 049 4 gusting 8 29.4
2015-Aug-03 14:09 005 6 gusting 8 29.4
2015-Aug-03 14:03 053 6 gusting 10 29.4
2015-Aug-03 13:59 360 6 gusting 10 29.4
2015-Aug-03 13:54 059 5 gusting 10 29.4
2015-Aug-03 13:49 010 6 gusting 10 29.4
2015-Aug-03 13:43 042 6 gusting 10 29.4
2015-Aug-03 13:38 355 7 gusting 10 29.4
2015-Aug-03 13:34 018 6 gusting 10 29.4
2015-Aug-03 13:28 005 6 gusting 10 29.4
2015-Aug-03 13:23 013 6 gusting 10 29.4
2015-Aug-03 13:19 346 6 gusting 10 29.4
2015-Aug-03 13:14 360 7 gusting 10 29.4
2015-Aug-03 13:09 013 6 gusting 10 29.4
2015-Aug-03 13:04 360 6 gusting 11 28.9
2015-Aug-03 12:59 005 6 gusting 11 28.9
2015-Aug-03 12:54 014 8 gusting 11 29.4
2015-Aug-03 12:48 355 6 gusting 12 29.4
2015-Aug-03 12:44 009 7 gusting 12 28.9
2015-Aug-03 12:39 005 8 gusting 11 28.9
2015-Aug-03 12:34 343 7 gusting 11 29.4
2015-Aug-03 12:29 005 7 gusting 11 29.4
2015-Aug-03 12:24 028 6 gusting 11 29.4
2015-Aug-03 12:19 038 7 gusting 11 29.4
2015-Aug-03 12:14 337 5 gusting 9 29.4
2015-Aug-03 12:09 360 6 gusting 10 29.4
2015-Aug-03 12:04 005 5 gusting 11 29.4
2015-Aug-03 11:59 012 8 gusting 12 29.4
2015-Aug-03 11:54 034 9 gusting 12 29.4
2015-Aug-03 11:48 005 7 gusting 12 29.4
2015-Aug-03 11:44 021 7 gusting 11 29.4
2015-Aug-03 11:38 030 7 gusting 10 29.4
2015-Aug-03 11:34 026 6 gusting 10 29.4
2015-Aug-03 11:29 360 7 gusting 11 28.9
2015-Aug-03 11:23 017 7 gusting 11 28.9
2015-Aug-03 11:19 350 7 gusting 10 29.4
2015-Aug-03 11:14 009 5 gusting 10 29.4
2015-Aug-03 11:09 350 6 gusting 10 28.9
2015-Aug-03 11:04 005 7 gusting 12 28.9
2015-Aug-03 10:59 045 6 gusting 9 28.9
2015-Aug-03 10:54 005 6 gusting 11 28.9
2015-Aug-03 10:49 360 7 gusting 11 28.3
2015-Aug-03 10:43 032 6 gusting 12 28.3
2015-Aug-03 10:38 329 7 gusting 12 28.3
2015-Aug-03 10:34 338 6 gusting 12 28.3
2015-Aug-03 10:29 355 8 gusting 12 28.3
2015-Aug-03 10:23 342 6 gusting 11 28.3
2015-Aug-03 10:18 013 6 gusting 11 28.3
2015-Aug-03 10:14 355 8 gusting 11 28.3
2015-Aug-03 10:09 355 7 gusting 12 28.3
2015-Aug-03 10:03 350 7 gusting 12 27.8
2015-Aug-03 09:58 009 7 gusting 12 27.8
2015-Aug-03 09:54 340 8 gusting 12 27.8
2015-Aug-03 09:48 330 6 gusting 9 27.2
2015-Aug-03 09:44 028 6 gusting 11 27.8
2015-Aug-03 09:39 009 4 gusting 11 27.8
2015-Aug-03 09:34 017 6 gusting 10 27.2
2015-Aug-03 09:29 327 6 gusting 10 27.2
2015-Aug-03 09:23 349 5 gusting 10 27.2
2015-Aug-03 09:19 302 6 gusting 10 27.2
2015-Aug-03 09:14 005 4 gusting 11 26.7
2015-Aug-03 09:08 338 6 gusting 11 27.2
2015-Aug-03 09:03 005 5 gusting 10 26.7
2015-Aug-03 08:59 325 6 gusting 10 26.7
2015-Aug-03 08:53 302 6 gusting 10 26.7
2015-Aug-03 08:48 304 6 gusting 11 26.1
2015-Aug-03 08:44 346 7 gusting 11 26.7
2015-Aug-03 08:39 344 6 gusting 11 26.1
2015-Aug-03 08:33 355 6 gusting 11 26.1
2015-Aug-03 08:29 329 6 gusting 11 26.1
2015-Aug-03 08:24 293 6 gusting 11 26.1
2015-Aug-03 08:19 346 6 gusting 11 25.6
2015-Aug-03 08:14 294 6 gusting 11 26.1
2015-Aug-03 08:09 344 6 gusting 13 25.6
2015-Aug-03 08:03 334 6 gusting 10 25.6
2015-Aug-03 07:59 294 6 gusting 10 25.6
2015-Aug-03 07:54 343 6 gusting 12 25.6
2015-Aug-03 07:48 323 7 gusting 11 25.0
2015-Aug-03 07:44 344 5 gusting 11 25.0
2015-Aug-03 07:38 300 7 gusting 11 25.6
2015-Aug-03 07:33 342 6 gusting 11 25.6
2015-Aug-03 07:29 300 6 gusting 10 25.6
2015-Aug-03 07:24 326 6 gusting 10 25.6
2015-Aug-03 07:18 337 6 gusting 9 25.0
2015-Aug-03 07:14 282 5 gusting 9 25.0
2015-Aug-03 07:09 309 6 gusting 9 25.0
2015-Aug-03 07:04 267 6 gusting 9 24.4
2015-Aug-03 06:59 322 6 gusting 9 24.4
2015-Aug-03 06:53 311 5 gusting 9 23.9
2015-Aug-03 06:49 306 5 gusting 9 23.3
2015-Aug-03 06:44 283 5 gusting 7 22.8
2015-Aug-03 06:38 273 2 gusting 6 22.8
2015-Aug-03 06:34 325 3 gusting 5 22.2
2015-Aug-03 06:28 345 2 gusting 5 22.2
2015-Aug-03 06:24 360 0 gusting 4 21.7
2015-Aug-03 06:19 237 21.7
2015-Aug-03 06:14 240 2 gusting 6 21.7
2015-Aug-03 06:08 236 0 gusting 1 21.1
2015-Aug-03 06:04 226 21.1
2015-Aug-03 05:59 227 21.1
2015-Aug-03 05:54 194 21.1
2015-Aug-03 05:49 194 20.6
2015-Aug-03 05:43 194 0 gusting 2 20.6
2015-Aug-03 05:39 192 0 gusting 3 20.6
2015-Aug-03 05:34 196 0 gusting 2 20.6
2015-Aug-03 05:28 197 20.6
2015-Aug-03 05:24 197 0 gusting 4 20.6
2015-Aug-03 05:19 198 0 gusting 4 20.0
2015-Aug-03 05:13 192 1 gusting 4 20.0
2015-Aug-03 05:09 182 0 gusting 1 20.0
2015-Aug-03 05:03 182 20.0
2015-Aug-03 04:59 182 20.0
2015-Aug-03 04:53 182 20.0
2015-Aug-03 04:49 182 20.0
2015-Aug-03 04:44 182 1 gusting 4 20.0
2015-Aug-03 04:38 181 20.0
2015-Aug-03 04:34 182 20.0
2015-Aug-03 04:28 182 1 gusting 4 20.0
2015-Aug-03 04:24 182 1 gusting 4 20.0
2015-Aug-03 04:18 181 2 gusting 4 20.0
2015-Aug-03 04:14 182 2 gusting 3 20.0
2015-Aug-03 04:08 181 0 gusting 3 20.0
2015-Aug-03 04:04 182 20.0
2015-Aug-03 03:58 182 2 gusting 4 20.6
2015-Aug-03 03:49 186 1 gusting 4 20.6
2015-Aug-03 03:44 180 1 gusting 4 20.6
2015-Aug-03 03:39 148 2 gusting 4 20.6
2015-Aug-03 03:34 147 0 gusting 4 20.6
2015-Aug-03 03:29 143 20.6
2015-Aug-03 03:24 143 2 gusting 4 20.6
2015-Aug-03 03:13 173 20.6
2015-Aug-03 03:09 173 20.6
2015-Aug-03 03:04 173 21.1
2015-Aug-03 02:58 173 21.1
2015-Aug-03 02:54 173 21.1
2015-Aug-03 02:48 173 21.1
2015-Aug-03 02:43 173 21.1
2015-Aug-03 02:39 173 21.1
2015-Aug-03 02:33 179 1 gusting 4 21.1
2015-Aug-03 02:29 211 21.7
2015-Aug-03 02:24 210 21.7
2015-Aug-03 02:18 210 21.7
2015-Aug-03 02:14 210 21.7
2015-Aug-03 02:09 211 21.7
2015-Aug-03 02:03 211 21.7